TimeMST,TemperatureF,Dew PointF,Humidity,Sea Level PressureIn,VisibilityMPH,Wind Direction,Wind SpeedMPH,Gust SpeedMPH,PrecipitationIn,Events,Conditions,WindDirDegrees,DateUTC
12:53 AM,12.9,7.0,77,30.28,10.0,East,4.6,-,N/A,,Overcast,100,2013-01-14 07:53:00
1:53 AM,16.0,8.1,71,30.27,10.0,SSE,9.2,-,N/A,,Overcast,150,2013-01-14 08:53:00
2:53 AM,17.1,10.9,77,30.28,1.5,SE,8.1,-,0.00,Snow,Light Snow,140,2013-01-14 09:53:00
3:07 AM,15.8,12.2,86,30.17,1.2,SE,6.9,-,0.00,Snow,Light Snow,130,2013-01-14 10:07:00
3:30 AM,17.6,12.2,79,30.16,1.0,SE,9.2,-,0.00,Snow,Light Snow,130,2013-01-14 10:30:00
3:38 AM,17.6,12.2,79,30.17,1.5,SE,8.1,-,0.00,Snow,Light Snow,130,2013-01-14 10:38:00
3:53 AM,17.1,12.9,84,30.27,1.5,SE,9.2,-,0.00,Snow,Light Snow,130,2013-01-14 10:53:00
4:17 AM,17.6,12.2,79,30.16,2.5,SE,9.2,-,0.00,Snow,Light Snow,140,2013-01-14 11:17:00
4:37 AM,17.6,12.2,79,30.17,3.0,SE,6.9,-,0.00,Snow,Light Snow,130,2013-01-14 11:37:00
4:50 AM,17.6,12.2,79,30.17,2.0,SE,5.8,-,0.00,Snow,Light Snow,130,2013-01-14 11:50:00
4:53 AM,17.1,12.0,81,30.28,2.0,SE,6.9,-,0.00,Snow,Light Snow,130,2013-01-14 11:53:00
5:07 AM,17.6,12.2,79,30.16,4.0,SE,8.1,-,0.00,Snow,Light Snow,130,2013-01-14 12:07:00
5:41 AM,17.6,10.4,73,30.17,2.0,SSE,10.4,-,0.00,Snow,Light Snow,150,2013-01-14 12:41:00
5:53 AM,17.1,10.9,77,30.31,2.5,SSE,9.2,-,0.00,Snow,Light Snow,160,2013-01-14 12:53:00
6:00 AM,17.6,10.4,73,30.19,5.0,SSE,9.2,-,0.00,Snow,Light Snow,150,2013-01-14 13:00:00
6:30 AM,17.6,10.4,73,30.20,10.0,SSE,10.4,-,0.00,,Overcast,150,2013-01-14 13:30:00
6:41 AM,17.6,10.4,73,30.20,3.0,SSE,11.5,-,0.00,Snow,Light Snow,160,2013-01-14 13:41:00
6:46 AM,17.6,12.2,79,30.20,1.8,SSE,10.4,-,0.00,Snow,Light Snow,160,2013-01-14 13:46:00
6:53 AM,17.1,12.0,81,30.35,1.5,SSE,10.4,-,0.00,Snow,Light Snow,150,2013-01-14 13:53:00
7:02 AM,17.6,12.2,79,30.21,2.5,SE,8.1,-,0.00,Snow,Light Snow,140,2013-01-14 14:02:00
7:34 AM,17.6,10.4,73,30.20,5.0,SE,10.4,-,0.00,Snow,Light Snow,140,2013-01-14 14:34:00
7:53 AM,17.1,10.9,77,30.34,9.0,SE,12.7,-,0.00,,Overcast,140,2013-01-14 14:53:00
8:53 AM,18.0,10.9,74,30.33,10.0,SSE,16.1,-,0.01,,Overcast,150,2013-01-14 15:53:00
9:53 AM,19.9,12.0,71,30.31,10.0,SSE,15.0,-,N/A,,Mostly Cloudy,150,2013-01-14 16:53:00
10:53 AM,21.9,14.0,72,30.27,10.0,South,13.8,-,N/A,,Mostly Cloudy,170,2013-01-14 17:53:00
11:03 AM,23.0,12.2,63,30.15,10.0,South,16.1,-,N/A,,Mostly Cloudy,170,2013-01-14 18:03:00
11:53 AM,24.1,14.0,65,30.23,10.0,South,13.8,-,N/A,,Overcast,170,2013-01-14 18:53:00
12:53 PM,26.1,14.0,60,30.18,10.0,South,13.8,-,N/A,,Overcast,180,2013-01-14 19:53:00
1:53 PM,27.0,14.0,58,30.15,10.0,South,13.8,20.7,N/A,,Overcast,180,2013-01-14 20:53:00
2:53 PM,28.0,12.9,53,30.15,10.0,South,17.3,-,N/A,,Partly Cloudy,180,2013-01-14 21:53:00
3:53 PM,27.0,14.0,58,30.17,10.0,South,15.0,-,N/A,,Mostly Cloudy,180,2013-01-14 22:53:00
4:53 PM,25.0,14.0,63,30.19,10.0,South,10.4,-,N/A,,Overcast,190,2013-01-14 23:53:00
5:53 PM,24.1,16.0,71,30.21,10.0,South,10.4,-,N/A,,Overcast,180,2013-01-15 00:53:00
6:53 PM,23.0,18.0,81,30.22,10.0,South,9.2,-,N/A,,Overcast,170,2013-01-15 01:53:00
7:44 PM,21.2,19.4,93,30.11,4.0,SSE,9.2,-,N/A,,Overcast,150,2013-01-15 02:44:00
7:53 PM,21.9,19.9,92,30.22,3.0,SSE,11.5,-,N/A,,Overcast,150,2013-01-15 02:53:00
8:12 PM,21.2,19.4,93,30.11,5.0,SSE,11.5,-,N/A,,Overcast,160,2013-01-15 03:12:00
8:53 PM,21.9,19.0,89,30.21,5.0,SSE,10.4,-,0.00,,Overcast,150,2013-01-15 03:53:00
9:08 PM,21.2,19.4,93,30.10,2.0,SE,9.2,-,0.00,Snow,Light Snow,140,2013-01-15 04:08:00
9:51 PM,21.2,17.6,86,30.10,3.0,SSE,10.4,-,0.00,Snow,Light Snow,150,2013-01-15 04:51:00
9:53 PM,21.9,18.0,85,30.20,4.0,SSE,11.5,-,0.00,Snow,Light Snow,150,2013-01-15 04:53:00
10:53 PM,18.0,15.1,88,30.21,10.0,SE,11.5,-,0.00,,Overcast,140,2013-01-15 05:53:00
11:53 PM,14.0,12.0,92,30.21,10.0,SSW,10.4,20.7,N/A,,Clear,210,2013-01-15 06:53:00